CAPE
2321 2336 2318 2292 2255 2184 2133 2168 2283 2343 2371 2316 2263 2193 2142 2115 2039 1938 1761 1619 1572 1545 1456 1388 1369 1316 1295 1217 1068 964 918 872 556 31 24 20 62 82 20 50 50 2 3 0 0 0 0 1 0 0 0 0 0 0 6 0 1 0 0 0 1 0 0 0 0 0 0 0 12 141 64 91 101 4 4 0 0 0 76 15 12 5 0 0 3
2460 2437 2408 2402 2393 2368 2318 2267 2305 2357 2387 2405 2358 2258 2137 2113 2003 1837 1722 1623 1637 1616 1597 1501 1430 1380 1361 1286 1140 1028 898 777 434 42 38 10 17 78 40 33 60 45 16 5 0 0 0 11 7 2 15 25 1 0 0 13 16 13 26 13 3 6 0 0 0 0 8 0 15 15 220 78 161 12 93 75 18 18 4 3 7 8 9 1 0
2602 2566 2514 2480 2488 2513 2487 2429 2385 2397 2396 2422 2441 2367 2227 2142 2061 1859 1803 1752 1673 1631 1619 1625 1553 1499 1446 1370 1246 948 751 624 456 224 218 78 9 39 53 36 32 59 75 42 7 0 0 4 3 0 28 7 0 0 0 0 22 30 28 35 31 17 12 10 13 4 113 214 0 2 122 53 102 76 19 8 40 23 4 7 28 31 58 38 20
2731 2685 2629 2577 2562 2586 2609 2569 2502 2460 2425 2411 2434 2444 2360 2237 2182 2060 1893 1850 1808 1745 1650 1619 1618 1581 1509 1443 1351 1174 966 798 658 536 505 194 34 35 38 26 26 20 77 102 43 7 3 1 1 0 24 29 4 5 9 0 4 17 11 38 219 172 10 37 22 18 0 0 0 0 0 7 3 0 0 22 18 40 41 36 0 2 8 38 66
2847 2783 2723 2670 2620 2630 2661 2654 2592 2534 2476 2410 2378 2415 2423 2382 2292 2225 2101 1977 1942 1900 1820 1770 1693 1596 1562 1495 1407 1286 1117 941 810 683 613 326 117 73 76 50 28 19 22 57 207 68 166 141 13 14 13 22 0 5 10 19 10 18 16 86 235 233 220 57 28 0 0 0 0 0 0 0 0 0 6 40 33 0 0 4 34 25 10 9 26
2934 2866 2812 2752 2717 2687 2694 2698 2664 2611 2541 2439 2365 2342 2377 2392 2395 2356 2257 2154 2080 2024 1968 1901 1816 1668 1541 1512 1443 1313 1180 1028 920 802 686 515 177 154 125 109 203 272 322 301 340 128 39 26 24 40 36 32 12 5 8 159 68 21 149 194 227 273 277 277 3 0 0 1 0 0 0 0 10 4 7 47 21 16 2 0 0 0 3 17 27
2982 2962 2883 2830 2787 2745 2715 2714 2710 2679 2594 2495 2387 2291 2286 2322 2352 2391 2363 2271 2162 2119 2071 2005 1898 1803 1705 1581 1415 1282 1175 1066 975 852 687 492 181 216 252 306 396 424 80 208 295 86 64 48 48 50 58 50 39 178 163 163 116 37 54 246 248 303 315 283 56 3 0 0 0 0 0 0 14 64 5 3 11 11 18 10 5 0 0 0 40
3000 3022 2971 2908 2847 2792 2751 2725 2715 2695 2635 2557 2453 2309 2250 2268 2304 2348 2367 2347 2273 2175 2135 2082 2010 1914 1834 1723 1619 1466 1332 1197 1056 907 732 540 298 349 409 497 632 646 291 246 193 173 78 60 61 56 65 56 305 313 236 208 252 312 348 385 399 297 305 291 261 86 5 98 4 19 0 0 0 0 0 0 0 0 0 10 19 1 0 0 0
2973 3056 3047 2984 2909 2845 2806 2759 2728 2702 2660 2598 2516 2402 2283 2263 2284 2313 2341 2338 2314 2260 2166 2101 2048 2007 1929 1848 1752 1651 1530 1400 1269 1104 918 750 599 585 704 867 978 994 528 414 402 272 268 152 167 74 175 404 350 343 278 323 277 359 449 492 500 427 342 327 340 310 335 386 131 0 0 0 0 0 0 0 0 0 0 0 0 0 0 0 0
2909 3049 3098 3065 2985 2909 2854 2804 2769 2731 2702 2643 2588 2497 2387 2317 2311 2329 2346 2366 2351 2319 2281 2216 2145 2084 2038 1965 1891 1818 1723 1604 1473 1331 1192 1047 945 1184 1342 1334 1340 982 708 452 514 353 337 174 163 536 640 1098 971 616 452 608 645 422 462 468 455 401 364 373 370 270 327 435 457 448 0 0 0 0 0 0 0 0 0 0 0 0 0 0 0
2826 3003 3104 3119 3080 3000 2917 2854 2801 2783 2743 2716 2674 2606 2535 2448 2378 2362 2391 2416 2429 2408 2371 2339 2303 2242 2182 2116 2059 2005 1938 1821 1722 1608 1497 1457 1562 1484 1418 1428 1492 1390 1036 606 672 422 307 470 456 579 906 1358 1286 1250 972 860 983 864 484 455 337 258 317 332 268 304 441 474 468 460 419 0 0 204 0 0 0 0 0 0 0 0 0 0 0
2677 2893 3043 3129 3157 3112 3016 2920 2846 2821 2795 2770 2739 2704 2637 2570 2505 2444 2444 2492 2535 2535 2490 2448 2428 2400 2366 2320 2257 2194 2116 2027 1944 1843 1785 2065 2232 2127 1823 1631 1543 1463 1152 763 776 681 371 374 290 227 564 658 787 1251 1674 1443 1008 987 935 726 515 408 389 401 375 364 408 465 532 546 274 0 157 0 0 0 0 0 0 0 0 0 0 0 0
2530 2772 2965 3113 3212 3188 3126 3025 2937 2871 2839 2815 2790 2764 2724 2640 2595 2558 2519 2529 2615 2639 2644 2593 2567 2526 2499 2463 2438 2391 2342 2282 2207 2191 2366 2518 2539 2413 2240 1952 1687 1491 1195 1078 939 717 400 265 304 212 332 1330 1218 614 722 875 801 749 808 878 874 801 708 641 574 458 555 662 463 379 419 353 139 0 0 0 0 0 0 0 0 0 0 0 0
2456 2689 2896 3078 3215 3237 3192 3106 3029 2962 2899 2856 2850 2829 2778 2719 2645 2602 2593 2573 2609 2712 2748 2732 2701 2677 2655 2608 2588 2547 2524 2499 2615 2684 2746 2800 2752 2586 2336 2106 1883 1732 1401 1123 1005 718 495 472 268 216 151 732 775 574 566 544 547 309 326 575 773 861 804 762 688 609 458 384 390 315 374 356 138 192 65 7 0 5 0 0 0 0 0 0 0
2425 2650 2847 3065 3193 3246 3229 3179 3119 3050 2978 2933 2913 2902 2859 2792 2720 2665 2622 2608 2658 2792 2853 2876 2868 2837 2821 2794 2769 2746 2801 2966 3041 3020 3006 3016 2862 2639 2391 2112 1861 1684 1483 1180 985 788 534 357 272 277 153 438 494 540 570 578 539 469 534 615 692 760 849 805 617 213 88 206 216 340 622 406 250 133 16 4 3 0 0 0 0 0 0 0 0
2415 2621 2815 3015 3158 3216 3229 3212 3176 3105 3042 2992 2975 2991 2971 2916 2858 2802 2719 2680 2774 2880 2946 2972 2997 2992 3000 2984 2982 3083 3264 3349 3318 3270 3221 3137 2896 2642 2354 2088 1869 1682 1468 1242 1078 913 587 462 401 246 179 399 372 448 665 512 448 539 569 656 730 650 486 596 502 403 431 693 919 736 492 266 171 82 54 15 0 0 7 1 0 0 0 0 0
2462 2582 2763 2936 3102 3193 3216 3203 3184 3151 3085 3025 3004 3047 3070 3066 3024 2978 2956 2941 2960 3000 3088 3136 3161 3189 3195 3248 3359 3485 3562 3555 3479 3384 3303 3102 2795 2571 2337 2119 1944 1702 1407 1258 1108 910 774 636 487 346 194 341 470 529 619 1421 860 928 944 957 842 754 895 828 719 1075 1236 963 620 423 357 26 0 0 0 263 203 0 0 0 0 0 0 0 0
2492 2510 2691 2836 3024 3140 3197 3200 3189 3184 3130 3064 3031 3062 3131 3172 3164 3148 3192 3219 3210 3203 3225 3290 3383 3430 3490 3543 3598 3657 3680 3570 3462 3321 3196 3070 2848 2574 2382 2190 2036 1798 1486 1264 1096 951 731 560 407 270 251 314 511 623 434 964 909 930 886 903 1085 1268 1447 1324 1096 1044 884 674 536 195 0 0 0 0 0 0 0 0 0 0 0 0 0 0 0
2553 2569 2609 2731 2911 3127 3255 3275 3240 3219 3192 3130 3084 3128 3244 3339 3353 3374 3386 3402 3439 3423 3413 3449 3493 3527 3602 3681 3775 3765 3662 3568 3482 3331 3192 3049 2851 2586 2300 2044 1934 1723 1525 1323 1082 900 639 756 1011 269 332 555 282 232 288 400 656 610 672 811 1031 1159 1256 1103 953 862 800 543 0 0 0 0 30 0 4 0 0 0 0 0 0 0 0 0 0
2650 2606 2613 2653 2878 3149 3346 3402 3384 3350 3319 3265 3245 3314 3437 3519 3564 3587 3588 3598 3637 3657 3677 3695 3738 3788 3830 3832 3737 3644 3575 3490 3383 3225 3120 2926 2663 2445 2208 1966 1824 1720 1650 1392 1100 803 515 186 518 644 478 198 74 78 128 178 363 547 696 820 952 1211 1232 1100 1010 859 632 367 70 3 0 0 0 0 0 0 0 90 34 0 0 0 0 0 0
2807 2738 2711 2705 2819 3206 3455 3548 3568 3558 3524 3498 3498 3555 3625 3679 3748 3789 3792 3793 3779 3815 3847 3872 3861 3836 3803 3718 3566 3450 3419 3324 3134 2898 2739 2589 2389 2180 2044 1862 1742 1557 1352 1141 853 668 588 250 38 240 347 275 182 86 77 140 328 606 757 810 985 1129 1173 1115 885 549 371 170 106 0 0 0 0 0 0 0 0 0 0 1 0 0 0 0 0
2920 2837 2775 2758 2921 3328 3602 3723 3756 3795 3784 3735 3707 3730 3783 3820 3881 3946 3969 3969 3959 3958 3922 3884 3846 3802 3731 3627 3500 3351 3169 2976 2782 2621 2522 2253 1995 1893 1798 1635 1530 1430 1233 946 801 692 612 498 363 322 195 261 384 427 459 550 674 698 652 624 789 601 673 716 568 383 210 153 17 0 0 0 0 0 0 0 0 0 0 0 0 0 0 0 0
2983 2897 2841 2803 3118 3553 3830 3913 3950 3996 3986 3927 3872 3896 3950 4014 4065 4074 4084 4086 4107 4095 4055 4007 3919 3839 3726 3532 3296 3103 2965 2738 2537 2354 2085 1881 1709 1568 1520 1481 1380 1165 999 856 694 601 168 407 300 13 0 0 115 546 744 836 920 725 713 757 825 643 634 532 306 220 98 0 0 0 0 0 0 0 0 0 0 0 0 0 0 0 0 0 0
3068 2970 2929 3030 3550 3846 4038 4087 4128 4122 4099 4050 3995 4002 4098 4181 4232 4235 4222 4254 4249 4246 4161 4049 3883 3750 3558 3292 2992 2518 2349 2269 2080 1926 1772 1600 1461 1327 1278 1272 1058 880 642 548 509 479 118 122 0 0 0 0 362 868 1074 1013 608 344 501 568 607 488 265 248 12 0 0 0 0 0 0 0 0 0 0 0 0 0 0 0 0 0 0 0 0
3388 3381 3406 3658 3949 4184 4210 4202 4205 4194 4187 4162 4139 4115 4183 4259 4312 4286 4328 4312 4292 4241 4033 3838 3627 3388 3151 2669 2154 2078 1957 1688 1541 1428 1248 1059 1052 1028 956 751 607 546 473 421 428 411 0 0 0 318 761 1046 1187 1173 1154 922 536 586 543 388 313 60 0 0 0 0 0 0 0 0 0 0 0 0 0 0 0 0 0 0 0 0 0 0 0
3736 3778 3856 3993 4113 4234 4298 4314 4290 4271 4278 4255 4210 4189 4245 4294 4330 4308 4269 4199 4067 3949 3766 3425 3204 2863 2384 2140 1990 1801 1544 1249 1114 950 905 982 965 808 613 355 394 408 383 261 0 0 0 192 759 975 1070 1120 1130 1068 1016 956 735 422 0 0 0 0 0 0 0 0 0 0 0 0 0 0 0 0 0 0 0 0 0 0 0 0 0 0 0
4092 4093 4061 4063 4120 4170 4225 4250 4285 4320 4331 4319 4296 4292 4287 4291 4292 4227 4037 3910 3751 3557 3395 3139 2653 2324 2162 1934 1748 1490 1231 940 656 664 645 544 422 297 0 0 194 0 0 0 0 156 717 856 902 923 951 926 849 681 664 619 450 206 0 0 0 0 0 0 0 0 0 0 0 0 0 0 0 0 0 0 0 0 0 0 0 0 0 0 0
3753 3907 4084 4027 4090 4134 4110 4190 4244 4321 4323 4324 4371 4360 4322 4208 4114 4006 3807 3630 3348 3023 2737 2478 2289 2021 1694 1514 1286 1031 749 472 418 452 408 436 456 190 0 0 0 0 0 0 0 22 526 674 680 655 658 615 579 493 418 264 192 0 0 0 0 0 0 1 1 0 0 0 0 0 0 0 0 0 0 0 0 0 0 0 0 0 0 0 0
3804 3714 3881 4062 3998 3987 4074 4025 4125 4215 4323 4404 4352 4058 3991 3940 3727 3628 3282 2770 2653 2495 2194 1997 1828 1648 1404 1208 979 699 464 418 488 503 539 482 321 0 0 0 0 0 0 0 0 0 197 379 386 408 423 451 450 410 230 7 0 0 0 0 0 0 0 0 0 0 0 0 0 0 0 0 0 0 0 0 0 0 0 0 0 0 0 0 0
3735 3722 3737 3530 3587 3641 3971 3877 4030 4221 4251 4238 4070 3802 3718 3454 2766 2434 2234 2032 1864 1731 1669 1642 1511 1263 1048 876 622 419 475 684 631 556 481 421 527 542 277 0 0 0 0 0 0 0 0 0 174 289 392 421 374 29 0 0 0 0 0 0 0 0 0 0 0 0 0 0 0 0 0 0 0 0 0 0 0 0 0 0 0 0 0 0 0
3572 3228 2428 2414 2852 3064 3450 3691 3379 3290 3173 3358 3460 3378 2109 2130 2075 1851 1615 1384 1158 944 924 958 921 823 628 592 535 534 707 720 611 616 643 661 654 524 0 0 0 0 0 0 0 0 0 118 235 262 350 269 64 0 0 0 0 0 0 0 0 0 0 0 0 0 0 0 0 0 0 0 0 0 0 0 0 0 0 0 0 0 0 0 0
2479 1922 1721 1609 2124 2298 2423 2372 2112 2146 2248 2674 2475 1915 1974 1779 1540 1281 1061 840 758 723 714 707 624 678 714 606 786 798 733 759 779 759 715 662 554 242 0 0 0 0 0 0 6 126 206 310 310 274 138 56 0 0 0 0 0 0 0 0 0 0 0 0 0 0 0 0 0 0 0 0 0 0 0 0 0 0 0 0 0 0 0 0 0
1689 944 1129 1340 1755 1864 1127 1370 1557 1835 2484 1955 1870 1677 1524 1268 1075 834 657 734 832 874 902 878 789 792 860 906 934 848 840 824 636 563 550 562 531 415 391 0 0 0 82 341 382 447 500 448 409 136 0 0 0 0 0 0 0 0 0 0 0 0 0 0 0 0 7 15 11 4 1 1 1 2 2 0 0 0 0 0 0 0 0 0 0
1509 1445 1486 1382 1410 1485 1312 1689 2264 1994 1697 1657 1551 1332 1030 926 718 577 641 776 856 936 963 936 923 869 933 943 918 893 830 637 566 267 0 0 0 0 0 0 113 390 477 534 533 486 478 423 134 0 0 0 0 0 0 0 0 0 0 0 0 1 3 0 3 6 7 1 0 1 1 0 0 0 0 0 0 0 0 0 0 0 0 0 0
654 1288 1203 1447 1776 2054 2213 2103 1768 1608 1486 1425 1250 936 803 684 554 574 651 774 876 917 969 928 866 810 879 889 892 810 651 540 534 488 0 0 0 0 0 0 1 63 104 214 351 365 247 77 0 0 0 0 0 0 0 0 0 0 4 9 5 11 3 3 3 4 4 3 3 4 2 1 0 0 0 0 0 0 0 0 0 0 0 0 0
1311 1682 1562 1996 2168 1883 1831 1573 1440 1380 1393 1353 1088 746 703 664 626 652 726 805 811 865 878 828 787 762 841 836 737 663 553 479 425 0 0 0 0 0 0 0 0 0 0 7 94 116 9 0 0 46 70 51 0 0 0 0 0 0 0 0 0 0 0 0 0 0 1 0 0 0 0 0 0 0 0 0 0 0 0 0 0 0 0 0 0
1380 1347 1332 1310 1322 1274 1269 1244 1221 1164 1152 1063 873 748 762 803 787 764 761 742 766 743 702 650 643 671 688 634 579 432 363 288 0 0 0 0 0 0 0 0 0 0 0 0 21 0 0 0 21 72 46 0 0 0 0 0 0 0 0 0 0 0 0 0 0 0 0 0 0 0 0 0 0 0 0 0 0 0 0 0 0 0 0 0 0
972 887 795 767 902 1027 1062 1066 1084 1103 1107 971 885 776 740 716 632 649 686 698 660 648 589 578 581 584 569 529 505 502 445 337 140 0 0 0 0 0 0 0 0 0 0 0 0 0 0 0 34 36 0 0 0 0 0 0 0 0 0 0 0 0 0 0 0 0 0 0 0 0 0 0 0 0 0 0 0 0 0 0 0 0 0 0 0
1060 1018 927 865 813 847 874 932 1011 1064 1149 1102 987 906 854 748 664 627 595 609 597 592 542 521 483 414 459 481 518 511 473 395 210 0 0 82 0 0 0 0 0 0 0 0 0 0 0 19 31 0 0 0 0 0 0 0 0 0 0 0 0 0 0 0 0 0 0 0 0 0 0 0 0 0 0 0 0 0 0 0 0 0 0 0 0
1142 1116 1058 966 922 897 842 828 780 861 909 958 927 860 812 801 779 696 653 625 593 560 557 519 488 462 456 472 488 505 482 465 400 399 337 0 0 46 49 33 0 0 0 0 0 0 0 0 0 0 0 0 0 0 0 0 0 0 0 0 0 0 0 0 0 0 0 0 0 0 0 0 0 0 0 0 0 0 0 0 0 0 0 0 0
1192 1154 1138 1075 1059 907 827 749 728 680 696 718 744 759 704 646 654 608 559 547 537 513 473 439 421 446 475 493 486 491 459 413 137 106 0 0 24 15 15 0 0 0 0 0 0 0 0 0 0 0 0 0 0 0 0 0 0 0 0 0 0 0 0 0 0 0 0 0 0 0 0 0 0 0 0 0 0 0 0 0 0 0 0 0 0
1204 1246 1196 1154 976 812 751 745 643 613 576 594 633 670 571 609 597 591 566 0 0 0 0 0 0 0 182 450 449 323 0 0 0 0 0 0 0 0 0 0 0 0 0 0 0 0 0 0 0 0 0 0 0 0 0 0 0 0 0 0 0 0 0 0 0 0 0 0 0 0 0 0 0 0 0 0 0 0 0 0 0 0 0 0 0
1318 1263 1203 988 856 736 686 638 697 730 761 786 810 844 776 749 722 667 596 188 0 0 0 0 0 0 0 0 0 0 0 0 0 0 0 0 0 0 0 0 0 0 0 0 0 0 0 0 0 0 0 0 0 0 0 0 0 0 0 0 0 0 0 0 0 0 0 0 0 0 0 0 0 0 0 0 0 0 0 0 0 0 0 0 0
695 1010 1118 979 872 839 774 703 604 645 679 633 690 735 809 809 745 672 598 305 0 0 0 0 0 0 0 0 0 0 0 0 0 0 0 0 0 0 0 0 0 0 0 0 0 0 0 0 0 0 0 0 0 0 0 0 0 0 0 0 0 0 0 0 0 0 0 0 0 0 0 0 0 0 0 0 0 0 0 0 0 0 0 0 0
512 440 474 505 602 682 764 857 721 634 607 550 469 519 648 784 771 697 598 456 224 174 0 0 0 0 0 0 0 0 0 0 0 0 0 0 0 0 0 0 0 0 0 0 0 0 0 0 0 0 0 0 0 0 0 0 0 0 0 0 0 0 0 0 0 0 0 0 0 0 0 0 0 0 0 0 0 0 0 0 0 0 0 0 0
334 300 400 422 397 482 622 650 671 679 554 444 384 376 368 451 568 611 595 398 226 163 36 0 0 0 0 0 0 0 0 0 0 0 0 0 0 0 0 0 0 0 0 0 0 0 0 0 0 0 0 0 0 0 0 0 0 0 0 0 0 0 0 0 0 0 0 0 0 0 0 0 0 0 0 0 0 0 0 0 0 0 0 0 0
421 293 252 342 413 424 266 270 120 447 347 334 376 240 201 176 222 140 160 103 139 138 92 0 0 0 0 0 0 0 0 0 0 0 0 0 0 0 0 0 0 0 0 0 0 0 0 0 0 0 0 0 0 0 0 0 0 0 0 0 0 0 0 0 0 0 0 0 0 0 0 0 0 0 0 0 0 0 0 0 0 0 0 0 0
612 513 437 362 103 134 288 138 130 277 276 330 206 244 148 298 199 65 59 68 112 112 0 0 0 0 0 0 0 0 0 0 0 0 0 0 0 0 0 0 0 0 0 0 0 0 0 0 0 0 0 0 0 0 0 0 0 0 0 0 0 0 0 0 0 0 0 0 0 0 0 0 0 0 0 0 0 0 0 0 0 0 0 0 0
545 538 494 416 300 267 202 12 113 142 140 142 143 110 87 111 99 83 68 100 117 67 0 0 0 0 0 0 0 0 0 0 0 0 0 0 0 0 0 0 0 0 0 0 0 0 0 2 2 0 0 0 0 0 0 0 0 0 0 0 0 0 0 0 0 0 0 0 0 0 0 0 0 0 0 0 0 0 0 0 0 0 0 0 0
413 522 456 330 268 212 208 210 172 152 143 136 103 60 76 69 64 78 131 79 42 0 0 73 34 0 0 0 0 0 0 0 0 0 0 0 0 6 11 16 15 16 16 16 14 12 14 15 7 1 0 0 0 0 0 0 0 0 0 0 0 0 0 0 0 0 0 0 0 0 0 0 0 0 0 0 0 0 0 0 0 0 0 0 0
141 177 150 125 115 150 99 107 97 93 0 105 84 57 5 0 0 0 25 15 0 32 0 0 0 0 0 0 0 0 0 0 0 0 0 14 24 26 25 24 21 23 22 20 24 25 19 12 8 6 2 0 0 0 0 0 0 0 0 0 0 0 0 0 0 0 0 0 0 0 0 0 0 0 0 0 0 0 0 0 0 0 0 0 0
Wind_Speed
20 18 19 17 18 17 16 16 15 16 16 16 15 15 15 14 13 13 13 10 11 13 15 17 18 20 21 21 23 25 27 28 28 nan nan nan nan nan nan nan nan nan nan nan nan nan nan nan nan nan nan nan nan nan nan nan nan nan nan nan nan nan nan nan nan nan nan nan nan 20 nan nan 18 nan nan nan nan nan nan nan nan nan nan nan nan
19 19 18 17 16 15 14 14 13 12 12 12 11 12 12 12 11 11 10 9 11 12 14 15 17 19 20 21 24 26 28 29 29 nan nan nan nan nan nan nan nan nan nan nan nan nan nan nan nan nan nan nan nan nan nan nan nan nan nan nan nan nan nan nan nan nan nan nan nan nan 21 nan 20 nan nan nan nan nan nan nan nan nan nan nan nan
20 20 19 17 15 15 14 12 11 9 9 9 8 9 9 9 8 7 7 9 10 12 14 15 17 18 19 21 24 25 27 28 30 32 34 nan nan nan nan nan nan nan nan nan nan nan nan nan nan nan nan nan nan nan nan nan nan nan nan nan nan nan nan nan nan nan 25 24 nan nan 24 nan 25 nan nan nan nan nan nan nan nan nan nan nan nan
19 20 19 17 16 15 12 10 8 7 6 6 6 6 6 6 5 4 6 9 11 11 13 15 17 18 20 22 23 24 26 28 31 33 36 37 nan nan nan nan nan nan nan 31 nan nan nan nan nan nan nan nan nan nan nan nan nan nan nan nan 33 33 nan nan nan nan nan nan nan nan nan nan nan nan nan nan nan nan nan nan nan nan nan nan nan
19 19 19 18 17 14 12 10 8 6 5 5 3 3 3 4 5 3 6 8 10 12 12 14 16 19 20 22 22 23 26 29 31 33 34 35 37 nan nan nan nan nan nan nan 28 nan 28 28 nan nan nan nan nan nan nan nan nan nan nan nan 33 32 32 nan nan nan nan nan nan nan nan nan nan nan nan nan nan nan nan nan nan nan nan nan nan
19 19 19 18 16 15 13 10 8 7 6 6 4 3 3 4 4 5 6 8 10 11 12 14 16 19 19 20 21 23 25 28 31 34 35 35 36 37 38 37 36 34 32 30 28 26 nan nan nan nan nan nan nan nan nan 35 nan nan 35 35 35 34 34 33 nan nan nan nan nan nan nan nan nan nan nan nan nan nan nan nan nan nan nan nan nan
20 20 19 18 16 15 14 11 9 9 8 8 7 6 5 4 4 5 6 7 9 10 12 14 15 16 17 18 21 24 26 27 29 32 34 35 36 38 38 39 38 36 nan 32 29 nan nan nan nan nan nan nan nan 35 36 37 37 nan nan 38 37 36 34 33 nan nan nan nan nan nan nan nan nan nan nan nan nan nan nan nan nan nan nan nan nan
22 21 20 18 16 15 14 13 12 12 11 11 10 8 7 6 5 6 7 6 8 10 12 13 13 14 16 18 21 23 26 27 29 32 34 36 37 38 40 40 41 38 36 34 31 29 nan nan nan nan nan nan 35 36 38 39 38 37 39 39 38 36 33 31 31 nan nan nan nan nan nan nan nan nan nan nan nan nan nan nan nan nan nan nan nan
22 22 21 19 17 16 16 15 15 15 14 14 12 9 8 7 6 6 5 6 8 9 10 11 12 14 16 19 22 24 27 28 30 33 36 37 38 40 41 42 42 40 37 35 32 31 29 29 30 nan 34 36 39 39 39 40 41 40 39 41 39 37 33 33 34 35 34 35 33 nan nan nan nan nan nan nan nan nan nan nan nan nan nan nan nan
24 23 22 20 18 18 18 17 17 17 16 14 12 11 9 8 7 5 5 7 8 9 9 11 13 16 19 21 23 25 27 29 33 41 41 39 41 41 41 41 42 41 38 35 33 32 31 31 32 36 38 39 39 40 40 41 42 43 43 44 41 37 34 35 37 38 40 39 37 37 nan nan nan nan nan nan nan nan nan nan nan nan nan nan nan
24 23 23 21 21 21 21 19 19 17 16 15 14 12 10 9 7 6 7 8 8 9 10 13 15 18 21 23 26 27 29 31 40 43 45 46 44 43 43 42 41 41 39 37 34 33 32 33 34 36 38 37 37 40 40 40 40 42 44 44 42 38 36 37 38 42 43 41 39 40 39 nan nan 41 nan nan nan nan nan nan nan nan nan nan nan
25 24 24 25 24 24 23 22 19 17 17 15 14 13 12 10 8 7 8 9 9 11 12 14 17 20 22 25 28 30 31 36 45 48 49 49 48 45 44 43 42 42 41 39 36 34 34 35 35 35 36 36 36 37 38 39 39 39 40 39 37 37 38 40 41 43 44 43 42 40 40 nan 37 nan nan nan nan nan nan nan nan nan nan nan nan
26 25 26 28 27 26 26 25 20 17 16 16 17 17 14 11 9 8 8 10 13 12 13 16 18 21 24 27 29 32 33 41 48 51 52 52 52 49 45 46 45 44 43 41 39 38 37 36 35 34 33 37 37 37 39 38 38 38 36 33 31 34 37 38 42 45 48 47 43 36 38 42 41 nan nan nan nan nan nan nan nan nan nan nan nan
26 26 28 28 29 28 28 27 22 17 17 19 20 18 15 11 10 11 12 13 13 13 14 17 19 22 25 28 30 32 34 42 50 52 52 53 54 53 47 48 47 45 44 43 40 39 39 38 36 34 33 35 37 38 38 37 37 38 38 37 37 37 38 40 42 48 47 42 37 35 38 47 44 44 nan nan nan nan nan nan nan nan nan nan nan
27 28 29 28 29 30 30 29 25 20 19 21 22 19 16 14 12 13 14 13 13 14 15 18 20 23 26 29 30 33 35 46 50 51 52 55 57 55 49 49 47 45 44 43 42 41 40 40 38 37 36 37 38 40 40 38 37 37 38 38 38 36 36 39 45 47 nan 37 39 40 40 44 45 45 nan nan nan nan nan nan nan nan nan nan nan
29 30 30 30 30 30 31 30 28 24 22 23 23 20 18 15 14 15 15 14 14 14 15 18 21 24 28 31 32 35 38 49 51 52 54 56 59 55 50 49 47 45 44 43 42 42 42 41 40 39 39 39 41 44 42 40 38 38 40 40 35 33 35 42 56 51 44 42 44 44 43 44 46 nan nan nan nan nan nan nan nan nan nan nan nan
32 31 31 30 30 31 31 32 31 28 24 24 23 21 19 17 17 19 17 16 16 16 18 20 23 27 30 33 36 38 40 49 54 55 56 60 60 54 49 47 46 46 45 44 44 43 43 42 42 41 41 42 44 45 43 42 40 42 43 40 37 37 38 45 56 52 45 42 41 41 43 nan nan nan nan 45 50 nan nan nan nan nan nan nan nan
32 32 32 31 31 32 33 33 34 31 27 24 22 21 20 20 19 20 18 18 17 18 20 23 25 28 32 35 39 41 42 49 56 56 57 59 58 50 43 42 43 45 45 45 45 45 45 49 46 44 44 44 45 46 44 43 43 42 41 41 39 38 40 45 47 49 51 53 52 49 nan nan nan nan nan nan nan nan nan nan nan nan nan nan nan
32 32 32 33 33 33 34 34 34 33 28 24 23 22 22 22 23 23 20 20 19 21 24 26 27 29 32 36 41 43 43 47 52 53 55 55 52 45 42 41 44 45 46 45 44 45 44 46 49 46 45 44 45 44 44 44 41 42 42 41 39 40 43 47 46 46 46 47 nan nan nan nan nan nan nan nan nan nan nan nan nan nan nan nan nan
31 32 34 37 37 34 34 35 35 34 30 27 24 24 26 27 26 25 25 24 25 25 27 29 31 32 34 37 38 40 43 43 45 51 56 56 54 48 46 46 47 48 48 47 46 43 44 43 44 47 46 43 nan nan 43 46 43 42 43 43 43 41 45 46 46 47 47 47 nan nan nan nan nan nan nan nan nan nan nan nan nan nan nan nan nan
33 35 39 41 40 37 35 35 36 34 33 31 29 30 30 28 29 30 31 30 29 29 31 32 33 35 36 36 38 40 42 45 45 52 54 56 54 52 47 48 50 52 51 48 46 45 43 42 nan 42 43 40 39 nan nan 45 45 44 43 40 37 39 46 46 47 50 49 48 47 nan nan nan nan nan nan nan nan nan nan nan nan nan nan nan nan
39 42 43 42 42 41 38 37 37 38 38 38 36 34 32 31 32 34 35 34 34 35 35 35 36 38 39 39 40 42 44 48 49 50 54 56 57 56 51 50 53 54 51 46 43 42 42 41 40 41 41 39 38 38 41 44 48 44 37 36 37 43 46 51 52 51 50 49 nan nan nan nan nan nan nan nan nan nan nan nan nan nan nan nan nan
45 45 46 46 44 43 41 40 40 42 43 43 41 38 37 36 37 39 39 39 39 40 39 39 40 41 42 42 42 44 46 48 53 53 53 56 58 56 56 55 58 53 48 43 41 40 41 40 38 nan nan nan 38 38 41 51 53 41 40 44 47 50 54 55 52 50 nan nan nan nan nan nan nan nan nan nan nan nan nan nan nan nan nan nan nan
52 50 49 48 47 45 43 42 42 45 47 48 46 44 42 41 41 42 42 42 43 43 41 41 43 43 44 45 45 46 47 49 51 55 54 55 56 58 58 61 57 44 40 39 39 39 39 38 nan nan nan nan 41 41 48 48 44 43 47 50 53 53 51 51 nan nan nan nan nan nan nan nan nan nan nan nan nan nan nan nan nan nan nan nan nan
58 54 51 51 52 50 47 46 46 47 49 52 51 49 47 46 47 45 46 45 45 44 42 43 44 44 45 47 47 48 49 51 52 53 56 57 59 60 61 60 50 41 38 37 38 38 nan nan nan 45 44 44 45 47 48 46 45 47 50 52 52 nan nan nan nan nan nan nan nan nan nan nan nan nan nan nan nan nan nan nan nan nan nan nan nan
62 59 56 57 59 57 53 52 52 51 51 53 55 52 50 49 50 48 48 47 46 45 45 45 45 46 47 48 49 50 50 52 54 53 52 54 56 60 60 55 46 39 38 38 nan nan nan 46 48 48 47 47 46 42 43 44 46 48 nan nan nan nan nan nan nan nan nan nan nan nan nan nan nan nan nan nan nan nan nan nan nan nan nan nan nan
68 66 64 63 65 65 61 57 58 57 55 57 59 57 54 53 53 52 50 48 47 46 47 47 47 47 48 49 51 52 53 54 54 51 51 51 50 50 nan nan 40 nan nan nan nan 42 44 44 44 45 46 46 43 42 43 46 46 45 nan nan nan nan nan nan nan nan nan nan nan nan nan nan nan nan nan nan nan nan nan nan nan nan nan nan nan
71 69 70 67 68 71 68 64 62 60 57 60 63 61 56 54 53 52 50 49 48 47 47 47 47 48 49 51 52 54 55 55 52 51 52 51 47 43 nan nan nan nan nan nan nan nan 44 46 46 45 45 44 43 44 44 44 43 nan nan nan nan nan nan nan nan nan nan nan nan nan nan nan nan nan nan nan nan nan nan nan nan nan nan nan nan
82 72 71 71 75 79 74 66 63 64 64 67 70 65 56 53 55 55 53 51 49 49 47 48 48 48 51 54 55 56 56 51 47 51 54 51 47 nan nan nan nan nan nan nan nan nan 44 44 44 44 45 46 44 44 43 nan nan nan nan nan nan nan nan nan nan nan nan nan nan nan nan nan nan nan nan nan nan nan nan nan nan nan nan nan nan
82 74 71 73 80 79 76 70 71 71 70 70 70 68 71 67 60 56 52 54 53 52 52 49 49 51 54 54 55 57 53 48 52 58 55 50 48 47 44 nan nan nan nan nan nan nan nan nan 44 45 46 45 44 nan nan nan nan nan nan nan nan nan nan nan nan nan nan nan nan nan nan nan nan nan nan nan nan nan nan nan nan nan nan nan nan
82 77 71 64 68 72 72 74 72 67 64 63 65 62 59 64 70 67 60 56 56 55 53 57 57 56 57 57 53 49 48 52 56 57 54 50 50 48 nan nan nan nan nan nan nan nan nan 45 44 43 44 44 nan nan nan nan nan nan nan nan nan nan nan nan nan nan nan nan nan nan nan nan nan nan nan nan nan nan nan nan nan nan nan nan nan
79 74 68 63 63 65 64 63 60 57 56 58 58 56 57 59 61 62 61 60 62 61 56 55 57 60 61 60 54 43 44 52 56 55 52 51 50 48 nan nan nan nan nan nan nan 44 44 45 44 43 43 nan nan nan nan nan nan nan nan nan nan nan nan nan nan nan nan nan nan nan nan nan nan nan nan nan nan nan nan nan nan nan nan nan nan
80 77 67 55 52 54 50 47 47 49 53 55 54 54 54 54 55 54 56 60 63 63 62 60 59 61 60 54 49 47 48 50 55 54 53 51 50 47 47 nan nan nan nan 44 44 44 44 44 44 43 nan nan nan nan nan nan nan nan nan nan nan nan nan nan nan nan nan nan nan nan nan nan nan nan nan nan nan nan nan nan nan nan nan nan nan
63 62 51 40 37 42 44 43 48 53 54 52 50 50 50 50 49 50 53 53 56 59 61 63 63 65 59 49 48 50 53 55 55 54 nan nan nan nan nan nan 47 48 46 44 44 44 44 44 43 nan nan nan nan nan nan nan nan nan nan nan nan nan nan nan nan nan nan nan nan nan nan nan nan nan nan nan nan nan nan nan nan nan nan nan nan
46 45 41 33 35 40 42 46 51 53 50 47 47 48 48 47 48 49 51 53 53 55 55 58 61 59 50 46 46 52 54 55 56 55 nan nan nan nan nan nan nan nan 37 40 44 44 44 nan nan nan nan nan nan nan nan nan nan nan nan nan nan nan nan nan nan nan nan nan nan nan nan nan nan nan nan nan nan nan nan nan nan nan nan nan nan
41 41 37 31 31 36 41 43 46 45 42 42 44 45 45 46 48 50 53 55 58 59 57 55 51 49 50 49 49 50 53 55 55 nan nan nan nan nan nan nan nan nan nan nan nan 43 nan nan nan nan nan nan nan nan nan nan nan nan nan nan nan nan nan nan nan nan nan nan nan nan nan nan nan nan nan nan nan nan nan nan nan nan nan nan nan
30 37 38 35 35 39 43 42 40 37 37 39 41 43 45 48 51 53 55 57 59 58 55 49 46 46 47 47 49 51 52 54 nan nan nan nan nan nan nan nan nan nan nan nan nan nan nan nan nan nan nan nan nan nan nan nan nan nan nan nan nan nan nan nan nan nan nan nan nan nan nan nan nan nan nan nan nan nan nan nan nan nan nan nan nan
26 31 36 37 39 40 39 37 35 36 35 37 39 41 45 49 53 55 58 59 57 55 50 45 45 48 49 46 46 47 52 52 52 nan nan nan nan nan nan nan nan nan nan nan nan nan nan nan nan nan nan nan nan nan nan nan nan nan nan nan nan nan nan nan nan nan nan nan nan nan nan nan nan nan nan nan nan nan nan nan nan nan nan nan nan
25 27 32 36 37 37 37 37 36 35 35 38 41 43 48 53 55 56 57 56 51 47 45 45 46 47 48 49 49 48 50 44 41 nan nan nan nan nan nan nan nan nan nan nan nan nan nan nan nan nan nan nan nan nan nan nan nan nan nan nan nan nan nan nan nan nan nan nan nan nan nan nan nan nan nan nan nan nan nan nan nan nan nan nan nan
30 31 34 38 35 36 37 37 36 35 36 40 42 46 51 55 55 54 51 48 44 42 43 45 47 48 49 47 46 42 41 40 38 38 37 nan nan nan nan nan nan nan nan nan nan nan nan nan nan nan nan nan nan nan nan nan nan nan nan nan nan nan nan nan nan nan nan nan nan nan nan nan nan nan nan nan nan nan nan nan nan nan nan nan nan
29 29 30 31 32 33 35 36 37 37 41 43 47 49 52 52 51 49 45 43 43 44 45 46 48 48 46 44 41 38 38 38 37 36 nan nan nan nan nan nan nan nan nan nan nan nan nan nan nan nan nan nan nan nan nan nan nan nan nan nan nan nan nan nan nan nan nan nan nan nan nan nan nan nan nan nan nan nan nan nan nan nan nan nan nan
27 31 30 31 32 34 36 37 39 41 45 47 49 49 49 48 48 47 46 nan nan nan nan nan nan nan 42 41 37 34 nan nan nan nan nan nan nan nan nan nan nan nan nan nan nan nan nan nan nan nan nan nan nan nan nan nan nan nan nan nan nan nan nan nan nan nan nan nan nan nan nan nan nan nan nan nan nan nan nan nan nan nan nan nan nan
26 31 34 34 36 37 38 41 44 46 48 49 49 48 47 47 46 48 48 49 nan nan nan nan nan nan nan nan nan nan nan nan nan nan nan nan nan nan nan nan nan nan nan nan nan nan nan nan nan nan nan nan nan nan nan nan nan nan nan nan nan nan nan nan nan nan nan nan nan nan nan nan nan nan nan nan nan nan nan nan nan nan nan nan nan
34 34 34 36 39 41 44 47 49 49 48 49 49 48 47 48 49 52 54 55 nan nan nan nan nan nan nan nan nan nan nan nan nan nan nan nan nan nan nan nan nan nan nan nan nan nan nan nan nan nan nan nan nan nan nan nan nan nan nan nan nan nan nan nan nan nan nan nan nan nan nan nan nan nan nan nan nan nan nan nan nan nan nan nan nan
39 37 35 33 34 40 44 47 47 47 47 48 48 47 47 49 50 50 52 53 51 45 nan nan nan nan nan nan nan nan nan nan nan nan nan nan nan nan nan nan nan nan nan nan nan nan nan nan nan nan nan nan nan nan nan nan nan nan nan nan nan nan nan nan nan nan nan nan nan nan nan nan nan nan nan nan nan nan nan nan nan nan nan nan nan
43 44 40 38 39 43 44 42 39 41 43 46 47 46 45 43 40 36 34 37 38 35 nan nan nan nan nan nan nan nan nan nan nan nan nan nan nan nan nan nan nan nan nan nan nan nan nan nan nan nan nan nan nan nan nan nan nan nan nan nan nan nan nan nan nan nan nan nan nan nan nan nan nan nan nan nan nan nan nan nan nan nan nan nan nan
44 44 45 41 41 43 42 39 37 36 38 37 37 38 37 34 31 29 29 31 33 31 nan nan nan nan nan nan nan nan nan nan nan nan nan nan nan nan nan nan nan nan nan nan nan nan nan nan nan nan nan nan nan nan nan nan nan nan nan nan nan nan nan nan nan nan nan nan nan nan nan nan nan nan nan nan nan nan nan nan nan nan nan nan nan
38 40 41 41 40 39 36 33 34 35 35 29 27 31 32 31 28 nan nan nan 34 32 nan nan nan nan nan nan nan nan nan nan nan nan nan nan nan nan nan nan nan nan nan nan nan nan nan nan nan nan nan nan nan nan nan nan nan nan nan nan nan nan nan nan nan nan nan nan nan nan nan nan nan nan nan nan nan nan nan nan nan nan nan nan nan
36 37 39 38 37 38 36 nan 32 33 33 30 28 33 nan 34 nan nan nan 34 35 nan nan nan nan nan nan nan nan nan nan nan nan nan nan nan nan nan nan nan nan nan nan nan nan nan nan nan nan nan nan nan nan nan nan nan nan nan nan nan nan nan nan nan nan nan nan nan nan nan nan nan nan nan nan nan nan nan nan nan nan nan nan nan nan
35 33 35 35 34 37 38 39 39 37 36 33 36 nan nan nan nan nan 34 nan nan nan nan nan nan nan nan nan nan nan nan nan nan nan nan nan nan nan nan nan nan nan nan nan nan nan nan nan nan nan nan nan nan nan nan nan nan nan nan nan nan nan nan nan nan nan nan nan nan nan nan nan nan nan nan nan nan nan nan nan nan nan nan nan nan
31 27 30 32 29 27 nan 35 nan nan nan 37 nan nan nan nan nan nan nan nan nan nan nan nan nan nan nan nan nan nan nan nan nan nan nan nan nan nan nan nan nan nan nan nan nan nan nan nan nan nan nan nan nan nan nan nan nan nan nan nan nan nan nan nan nan nan nan nan nan nan nan nan nan nan nan nan nan nan nan nan nan nan nan nan nan
Wind_Direction
299 291 281 279 279 281 278 276 277 272 273 274 275 276 278 284 292 293 285 297 299 308 319 328 329 330 331 331 333 334 337 339 339 nan nan nan nan nan nan nan nan nan nan nan nan nan nan nan nan nan nan nan nan nan nan nan nan nan nan nan nan nan nan nan nan nan nan nan nan 303 nan nan 291 nan nan nan nan nan nan nan nan nan nan nan nan
301 294 285 282 286 282 280 274 274 270 275 274 275 275 276 283 285 279 295 295 298 312 322 322 322 326 329 332 334 336 338 340 338 nan nan nan nan nan nan nan nan nan nan nan nan nan nan nan nan nan nan nan nan nan nan nan nan nan nan nan nan nan nan nan nan nan nan nan nan nan 293 nan 297 nan nan nan nan nan nan nan nan nan nan nan nan
300 294 292 289 290 283 281 278 277 279 282 273 279 276 270 270 267 278 285 288 297 312 320 319 321 326 330 333 334 336 338 338 337 338 340 nan nan nan nan nan nan nan nan nan nan nan nan nan nan nan nan nan nan nan nan nan nan nan nan nan nan nan nan nan nan nan 313 312 nan nan 296 nan 298 nan nan nan nan nan nan nan nan nan nan nan nan
300 298 297 297 295 292 291 284 287 286 286 272 278 269 255 242 237 249 275 282 300 311 317 318 319 327 332 334 336 336 336 336 337 339 341 343 nan nan nan nan nan nan nan 341 nan nan nan nan nan nan nan nan nan nan nan nan nan nan nan nan 317 318 nan nan nan nan nan nan nan nan nan nan nan nan nan nan nan nan nan nan nan nan nan nan nan
300 300 299 300 299 299 297 289 294 299 290 263 272 257 236 221 220 244 265 283 299 307 312 313 319 326 332 335 335 336 336 336 338 340 341 342 344 nan nan nan nan nan nan nan 335 nan 332 331 nan nan nan nan nan nan nan nan nan nan nan nan 316 316 312 nan nan nan nan nan nan nan nan nan nan nan nan nan nan nan nan nan nan nan nan nan nan
300 299 299 300 298 302 299 295 301 301 288 274 275 251 225 227 238 242 268 289 296 305 312 312 319 327 331 332 332 334 333 335 340 342 341 340 341 343 345 345 346 343 337 334 334 332 nan nan nan nan nan nan nan nan nan 316 nan nan 315 316 317 316 315 313 nan nan nan nan nan nan nan nan nan nan nan nan nan nan nan nan nan nan nan nan nan
299 300 298 300 296 299 298 299 288 282 277 271 256 241 237 244 252 257 267 290 301 303 310 319 319 323 327 327 330 332 332 334 339 340 339 338 340 341 342 343 344 342 nan 331 332 nan nan nan nan nan nan nan nan 320 318 315 314 nan nan 318 318 318 318 316 nan nan nan nan nan nan nan nan nan nan nan nan nan nan nan nan nan nan nan nan nan
300 303 300 299 299 300 295 288 279 273 267 264 260 255 252 248 241 242 259 290 300 307 313 319 316 312 320 325 327 327 329 333 336 336 335 337 338 340 341 341 342 341 333 330 330 330 nan nan nan nan nan nan 322 321 316 315 314 315 315 315 317 319 319 318 317 nan nan nan nan nan nan nan nan nan nan nan nan nan nan nan nan nan nan nan nan
300 306 305 303 303 296 286 277 271 269 268 267 268 267 262 251 239 244 260 278 279 299 304 306 308 313 315 320 322 323 328 333 332 332 332 335 337 339 341 340 340 338 334 330 327 327 326 327 325 nan 323 325 327 322 318 315 313 315 314 313 314 317 319 319 320 317 316 316 316 nan nan nan nan nan nan nan nan nan nan nan nan nan nan nan nan
302 309 314 312 296 289 286 278 275 274 273 274 271 267 256 247 243 249 266 274 278 284 291 299 308 314 316 319 321 325 330 331 333 335 333 333 336 337 339 340 339 336 334 330 328 327 328 326 325 329 331 334 329 326 324 323 321 316 314 312 315 316 317 317 317 316 315 315 316 315 nan nan nan nan nan nan nan nan nan nan nan nan nan nan nan
301 308 317 309 293 288 284 284 280 282 281 271 262 261 255 243 238 244 255 265 276 279 289 305 312 313 319 322 328 331 332 331 332 331 335 340 337 337 338 338 335 335 335 334 331 329 327 327 324 328 331 331 328 328 326 325 324 323 320 318 317 316 314 315 316 314 314 315 313 310 310 nan nan 301 nan nan nan nan nan nan nan nan nan nan nan
300 306 309 300 295 293 289 287 285 285 278 271 263 256 247 239 235 242 255 270 272 276 297 312 314 316 320 326 331 333 332 331 330 332 337 342 339 335 333 332 333 334 335 336 335 330 328 326 325 325 326 327 322 318 321 324 323 320 317 317 319 318 316 315 315 312 312 314 311 311 307 nan 303 nan nan nan nan nan nan nan nan nan nan nan nan
295 298 299 300 302 298 290 288 290 284 281 272 257 249 246 240 238 245 260 264 267 285 305 309 314 320 323 328 332 330 329 329 331 335 339 340 339 335 330 331 331 333 334 336 336 334 330 328 328 327 325 329 322 316 312 313 316 316 315 315 315 316 319 323 320 313 310 310 310 308 307 303 304 nan nan nan nan nan nan nan nan nan nan nan nan
287 291 292 297 301 298 292 291 288 286 276 266 257 252 250 245 240 242 246 255 272 291 302 313 318 322 325 328 328 326 328 326 332 336 339 337 336 335 329 328 330 332 334 334 334 333 331 329 330 330 323 320 320 317 314 315 313 307 304 302 304 308 313 316 317 303 296 299 304 304 301 301 306 305 nan nan nan nan nan nan nan nan nan nan nan
280 281 286 292 294 293 293 292 290 281 273 267 261 257 253 242 242 245 251 265 282 296 308 316 319 320 322 323 323 324 324 324 331 335 336 335 334 331 327 325 325 328 329 330 330 330 329 331 331 330 326 324 322 319 317 315 310 306 304 302 302 303 306 310 302 299 nan 308 303 302 303 304 307 308 nan nan nan nan nan nan nan nan nan nan nan
278 276 280 286 290 292 293 292 288 280 272 267 264 260 254 251 252 251 255 263 275 287 299 309 316 319 320 320 322 322 318 322 330 333 334 332 330 323 320 319 320 322 325 326 327 328 329 330 330 328 326 325 324 325 320 313 309 306 301 297 299 303 307 304 302 307 309 310 308 307 307 309 310 nan nan nan nan nan nan nan nan nan nan nan nan
275 276 280 284 288 289 288 288 286 283 276 269 266 262 257 256 254 253 261 271 283 298 307 311 313 315 317 319 321 317 314 324 331 333 331 330 321 315 313 313 316 319 323 325 326 326 328 329 330 328 325 324 324 324 323 315 306 303 303 307 308 307 307 301 304 309 316 314 313 314 313 nan nan nan nan 305 302 nan nan nan nan nan nan nan nan
274 276 279 282 286 285 282 282 283 282 277 275 270 262 258 256 260 262 273 281 293 302 301 303 306 311 316 319 317 315 317 325 332 332 331 328 325 321 316 314 316 318 321 323 323 324 327 333 329 327 324 323 324 323 322 314 309 308 307 308 308 305 301 298 301 302 306 308 307 302 nan nan nan nan nan nan nan nan nan nan nan nan nan nan nan
272 273 277 280 280 278 276 276 278 280 280 277 268 265 262 262 261 265 273 281 288 286 290 298 300 304 311 313 316 319 319 322 330 330 328 326 329 327 323 318 317 318 319 321 321 323 325 329 330 325 323 323 325 324 322 317 311 309 308 306 305 301 299 297 296 295 295 294 nan nan nan nan nan nan nan nan nan nan nan nan nan nan nan nan nan
273 271 270 269 268 268 268 273 275 277 279 275 267 262 257 256 263 270 271 274 277 282 288 293 298 301 302 306 311 316 313 311 318 325 328 329 331 326 323 320 321 319 318 319 320 319 322 324 325 326 327 327 nan nan 324 320 313 308 306 305 303 303 295 293 296 297 298 298 nan nan nan nan nan nan nan nan nan nan nan nan nan nan nan nan nan
267 262 259 261 265 268 266 270 275 274 272 270 264 259 258 262 267 270 270 269 275 280 285 287 292 294 294 297 303 305 307 309 314 323 326 327 329 324 321 321 319 318 317 316 318 318 320 321 nan 322 326 327 328 nan nan 320 318 311 306 304 302 300 300 301 302 301 302 300 298 nan nan nan nan nan nan nan nan nan nan nan nan nan nan nan nan
253 253 255 259 264 265 265 266 270 268 264 261 261 262 261 266 270 269 268 274 279 279 277 281 285 286 287 293 300 301 302 309 311 317 322 325 326 324 318 319 318 316 314 313 314 316 318 318 318 319 323 326 327 325 324 321 305 294 307 313 302 295 300 303 303 303 302 300 nan nan nan nan nan nan nan nan nan nan nan nan nan nan nan nan nan
250 251 254 256 259 263 263 265 264 261 261 262 263 262 261 264 265 266 270 273 275 274 276 279 283 286 288 291 294 296 299 302 309 312 319 321 323 322 319 315 315 313 313 312 315 317 316 315 316 nan nan nan 322 323 319 307 307 318 312 302 300 301 300 300 302 301 nan nan nan nan nan nan nan nan nan nan nan nan nan nan nan nan nan nan nan
252 251 252 255 255 255 257 260 259 259 261 259 258 258 259 261 262 264 267 270 270 271 274 279 282 287 291 292 291 293 296 298 305 311 313 319 319 322 320 314 311 309 310 312 313 314 313 312 nan nan nan nan 318 315 305 312 312 311 302 301 300 301 299 299 nan nan nan nan nan nan nan nan nan nan nan nan nan nan nan nan nan nan nan nan nan
251 250 250 252 253 251 253 256 257 256 257 257 256 255 256 259 259 259 263 265 268 272 275 278 282 286 289 291 291 293 296 297 298 304 311 314 318 322 318 310 310 307 309 308 308 309 nan nan nan 313 314 313 306 304 307 312 307 301 301 302 303 nan nan nan nan nan nan nan nan nan nan nan nan nan nan nan nan nan nan nan nan nan nan nan nan
248 248 248 250 251 252 255 257 256 254 253 251 253 253 256 256 258 259 261 264 267 271 275 277 281 285 287 288 291 293 294 293 294 299 305 311 315 322 317 307 297 298 300 300 nan nan nan 306 307 308 308 309 308 308 307 306 304 303 nan nan nan nan nan nan nan nan nan nan nan nan nan nan nan nan nan nan nan nan nan nan nan nan nan nan nan
246 243 246 248 249 251 258 258 254 250 249 247 246 247 249 252 256 258 260 264 267 271 275 278 281 285 287 288 290 292 293 294 296 300 304 308 312 315 nan nan 297 nan nan nan nan 300 300 303 306 308 308 307 306 306 303 303 305 306 nan nan nan nan nan nan nan nan nan nan nan nan nan nan nan nan nan nan nan nan nan nan nan nan nan nan nan
243 243 242 243 245 250 254 260 255 246 246 246 246 246 246 251 256 259 262 266 269 272 275 279 283 286 287 289 290 290 291 295 299 304 308 310 311 312 nan nan nan nan nan nan nan nan 302 302 303 305 306 306 306 307 308 308 309 nan nan nan nan nan nan nan nan nan nan nan nan nan nan nan nan nan nan nan nan nan nan nan nan nan nan nan nan
246 242 240 239 240 244 247 247 245 244 241 235 235 237 243 249 252 251 251 261 268 273 275 276 280 283 285 287 288 289 292 298 305 307 312 315 313 nan nan nan nan nan nan nan nan nan 302 304 306 307 309 311 312 313 312 nan nan nan nan nan nan nan nan nan nan nan nan nan nan nan nan nan nan nan nan nan nan nan nan nan nan nan nan nan nan
257 249 238 236 236 234 237 236 233 235 237 236 236 234 230 232 239 252 254 248 253 264 271 273 277 279 280 282 284 291 297 302 303 309 314 315 314 314 314 nan nan nan nan nan nan nan nan nan 312 312 313 314 316 nan nan nan nan nan nan nan nan nan nan nan nan nan nan nan nan nan nan nan nan nan nan nan nan nan nan nan nan nan nan nan nan
261 256 249 240 243 240 233 228 229 234 235 232 230 234 235 233 235 238 244 250 254 259 266 273 276 279 278 278 275 278 290 296 304 308 310 310 309 309 nan nan nan nan nan nan nan nan nan 313 314 315 315 315 nan nan nan nan nan nan nan nan nan nan nan nan nan nan nan nan nan nan nan nan nan nan nan nan nan nan nan nan nan nan nan nan nan
266 262 257 256 249 243 235 231 232 233 227 224 228 235 239 242 240 237 241 250 254 257 263 275 281 281 283 284 285 282 291 300 305 308 309 308 309 309 nan nan nan nan nan nan nan 310 313 313 314 317 315 nan nan nan nan nan nan nan nan nan nan nan nan nan nan nan nan nan nan nan nan nan nan nan nan nan nan nan nan nan nan nan nan nan nan
265 264 263 260 253 243 234 229 226 224 221 222 230 237 241 245 249 249 244 249 254 257 258 261 268 277 282 287 295 299 300 303 307 307 306 306 306 307 308 nan nan nan nan 305 309 311 313 314 317 318 nan nan nan nan nan nan nan nan nan nan nan nan nan nan nan nan nan nan nan nan nan nan nan nan nan nan nan nan nan nan nan nan nan nan nan
263 260 257 254 243 232 224 217 216 216 219 226 234 238 240 246 252 255 259 260 256 256 257 259 263 269 270 278 289 292 296 302 305 303 nan nan nan nan nan nan 304 310 310 310 310 313 314 315 317 nan nan nan nan nan nan nan nan nan nan nan nan nan nan nan nan nan nan nan nan nan nan nan nan nan nan nan nan nan nan nan nan nan nan nan nan
256 258 256 233 216 213 216 216 215 218 225 233 239 241 244 248 254 258 262 264 265 265 265 262 260 262 271 278 284 292 296 299 301 301 nan nan nan nan nan nan nan nan 307 308 312 313 315 nan nan nan nan nan nan nan nan nan nan nan nan nan nan nan nan nan nan nan nan nan nan nan nan nan nan nan nan nan nan nan nan nan nan nan nan nan nan
239 233 228 230 222 217 220 219 217 222 231 237 240 243 247 252 255 258 260 262 263 263 260 260 265 268 271 274 280 286 291 296 298 nan nan nan nan nan nan nan nan nan nan nan nan 313 nan nan nan nan nan nan nan nan nan nan nan nan nan nan nan nan nan nan nan nan nan nan nan nan nan nan nan nan nan nan nan nan nan nan nan nan nan nan nan
232 224 227 233 233 225 221 222 225 234 241 242 242 245 250 253 255 257 259 262 262 262 265 270 274 274 276 278 280 281 284 288 nan nan nan nan nan nan nan nan nan nan nan nan nan nan nan nan nan nan nan nan nan nan nan nan nan nan nan nan nan nan nan nan nan nan nan nan nan nan nan nan nan nan nan nan nan nan nan nan nan nan nan nan nan
233 224 224 229 229 228 228 235 246 256 252 248 249 254 256 258 260 260 261 262 264 266 271 277 281 285 287 287 288 287 286 284 282 nan nan nan nan nan nan nan nan nan nan nan nan nan nan nan nan nan nan nan nan nan nan nan nan nan nan nan nan nan nan nan nan nan nan nan nan nan nan nan nan nan nan nan nan nan nan nan nan nan nan nan nan
240 239 239 236 235 238 245 254 260 260 255 254 257 261 262 261 262 263 264 265 267 270 275 279 283 286 288 289 288 288 285 284 288 nan nan nan nan nan nan nan nan nan nan nan nan nan nan nan nan nan nan nan nan nan nan nan nan nan nan nan nan nan nan nan nan nan nan nan nan nan nan nan nan nan nan nan nan nan nan nan nan nan nan nan nan
250 246 249 253 247 252 257 262 264 261 261 264 264 263 263 264 266 268 269 270 271 274 279 282 284 286 288 288 287 285 284 287 290 291 293 nan nan nan nan nan nan nan nan nan nan nan nan nan nan nan nan nan nan nan nan nan nan nan nan nan nan nan nan nan nan nan nan nan nan nan nan nan nan nan nan nan nan nan nan nan nan nan nan nan nan
258 257 258 257 261 261 261 265 266 266 265 263 262 263 266 271 273 274 274 274 275 278 281 283 285 287 289 289 290 288 287 290 289 291 nan nan nan nan nan nan nan nan nan nan nan nan nan nan nan nan nan nan nan nan nan nan nan nan nan nan nan nan nan nan nan nan nan nan nan nan nan nan nan nan nan nan nan nan nan nan nan nan nan nan nan
247 262 262 262 263 263 263 264 264 267 268 268 266 265 268 273 277 279 278 nan nan nan nan nan nan nan 284 286 288 283 nan nan nan nan nan nan nan nan nan nan nan nan nan nan nan nan nan nan nan nan nan nan nan nan nan nan nan nan nan nan nan nan nan nan nan nan nan nan nan nan nan nan nan nan nan nan nan nan nan nan nan nan nan nan nan
249 256 267 267 266 267 266 263 261 263 264 266 268 268 271 277 280 280 279 278 nan nan nan nan nan nan nan nan nan nan nan nan nan nan nan nan nan nan nan nan nan nan nan nan nan nan nan nan nan nan nan nan nan nan nan nan nan nan nan nan nan nan nan nan nan nan nan nan nan nan nan nan nan nan nan nan nan nan nan nan nan nan nan nan nan
246 245 252 257 259 261 265 265 265 267 271 272 272 272 274 277 279 279 278 278 nan nan nan nan nan nan nan nan nan nan nan nan nan nan nan nan nan nan nan nan nan nan nan nan nan nan nan nan nan nan nan nan nan nan nan nan nan nan nan nan nan nan nan nan nan nan nan nan nan nan nan nan nan nan nan nan nan nan nan nan nan nan nan nan nan
254 256 260 259 259 263 263 265 268 272 274 273 272 272 274 275 275 276 278 277 275 272 nan nan nan nan nan nan nan nan nan nan nan nan nan nan nan nan nan nan nan nan nan nan nan nan nan nan nan nan nan nan nan nan nan nan nan nan nan nan nan nan nan nan nan nan nan nan nan nan nan nan nan nan nan nan nan nan nan nan nan nan nan nan nan
261 258 258 263 268 265 264 264 268 271 272 272 271 267 265 264 263 262 262 266 268 264 nan nan nan nan nan nan nan nan nan nan nan nan nan nan nan nan nan nan nan nan nan nan nan nan nan nan nan nan nan nan nan nan nan nan nan nan nan nan nan nan nan nan nan nan nan nan nan nan nan nan nan nan nan nan nan nan nan nan nan nan nan nan nan
268 268 269 266 267 272 274 273 268 264 265 270 275 275 273 272 271 267 258 259 263 264 nan nan nan nan nan nan nan nan nan nan nan nan nan nan nan nan nan nan nan nan nan nan nan nan nan nan nan nan nan nan nan nan nan nan nan nan nan nan nan nan nan nan nan nan nan nan nan nan nan nan nan nan nan nan nan nan nan nan nan nan nan nan nan
259 260 261 260 257 253 251 250 254 258 261 259 262 266 265 263 261 nan nan nan 265 269 nan nan nan nan nan nan nan nan nan nan nan nan nan nan nan nan nan nan nan nan nan nan nan nan nan nan nan nan nan nan nan nan nan nan nan nan nan nan nan nan nan nan nan nan nan nan nan nan nan nan nan nan nan nan nan nan nan nan nan nan nan nan nan
256 258 261 261 260 260 258 nan 257 258 256 252 254 258 nan 257 nan nan nan 263 268 nan nan nan nan nan nan nan nan nan nan nan nan nan nan nan nan nan nan nan nan nan nan nan nan nan nan nan nan nan nan nan nan nan nan nan nan nan nan nan nan nan nan nan nan nan nan nan nan nan nan nan nan nan nan nan nan nan nan nan nan nan nan nan nan
253 252 253 253 255 257 255 254 252 252 256 252 250 nan nan nan nan nan 263 nan nan nan nan nan nan nan nan nan nan nan nan nan nan nan nan nan nan nan nan nan nan nan nan nan nan nan nan nan nan nan nan nan nan nan nan nan nan nan nan nan nan nan nan nan nan nan nan nan nan nan nan nan nan nan nan nan nan nan nan nan nan nan nan nan nan
254 249 250 253 246 249 nan 250 nan nan nan 253 nan nan nan nan nan nan nan nan nan nan nan nan nan nan nan nan nan nan nan nan nan nan nan nan nan nan nan nan nan nan nan nan nan nan nan nan nan nan nan nan nan nan nan nan nan nan nan nan nan nan nan nan nan nan nan nan nan nan nan nan nan nan nan nan nan nan nan nan nan nan nan nan nan